TABS, Texas Automated Buoy System, NOAA HAZMAT, Ocean Observatory, Real Time Oceanographic Data Supporting Oil Spill Prevention and Response

Texas General Land Office
 Texas General Land Office
 George P. Bush, Commissioner

 Oil Spill Prevention
 & Response

Texas Automated Buoy System
Real Time Ocean Observations
Supporting Oil Spill Prevention and
Response since 1995
Geochemical and Environmental Research Group

TABS Buoy J -- Texas Automated Buoy System

TABS Buoy J Conditions at 08/15/2018 23:00 UTC (08/15/2018 18:00 CDT)
26° 11.4840'N   97° 3.0420'W
AA3900 DCS - sensor depth 2m
Anemometer height: 4m
Water Depth: 68 feet (20 meters)
Speed: 3.97 cm/s (0.08 kts) Direction: 302 °T (WNW) Water Temp: 26°C (78 °F)
System Voltage: 12.2 V Signal Strength: -2.0 dB Ping Count: 116
Wind: 0.0 m/s (0.0 kts)
          From 90°T (E)
Air Temp: 16 °C (60 °F)
Relative Humidity:  72 %
Pressure: 1013.1 mb (29.92 inHg)

  


IMPORTANT: Notice to Mariners


Today's Meteorological Data (download)

   Date   |  Time  |  VEast   North    AirT  AtmPr     Gust   Comp   Tx   Ty    PAR   RelH
          |  (UTC) |  (m/s)|  (m/s)|   (°C)|  (mb) |  (m/s)|  (°M) |    |    |      |  (%) |
==========+========+=======+=======+=======+=======+=======+=======+====+====+======+======+
08/15/2018 00:00:00    0.00    0.00    15.5 1012.04    0.00     0.0    0    0    0.0   71.0
08/15/2018 00:30:00    0.00    0.00    13.9 1012.25    0.00     0.0    0    0    0.0   69.6
08/15/2018 01:00:00    0.00    0.00    13.0 1012.32    0.00     0.0    0    0    0.0   69.0
08/15/2018 01:30:00    0.00    0.00    13.2 1012.66    0.00     0.0    0    0    0.0   68.6
08/15/2018 02:00:00    0.00    0.00    12.6 1012.80    0.00     0.0    0    0    0.0   69.5
08/15/2018 02:30:00    0.00    0.00    12.0 1013.05    0.00     0.0    0    0    0.0   70.3
08/15/2018 03:00:00    0.00    0.00    12.1 1013.49    0.00     0.0    0    0    0.0   69.7
08/15/2018 03:30:00    0.00    0.00    12.1 1013.59    0.00     0.0    0    0    0.0   71.0
08/15/2018 04:00:00    0.00    0.00    12.4 1013.80    0.00     0.0    0    0    0.0   70.9
08/15/2018 04:30:00    0.00    0.00    12.0 1013.94    0.00     0.0    0    0    0.0   70.6
08/15/2018 05:00:00    0.00    0.00    12.5 1013.88    0.00     0.0    0    0    0.0   73.1
08/15/2018 05:30:00    0.00    0.00    12.4 1013.98    0.00     0.0    0    0    0.0   71.9
08/15/2018 06:00:00    0.00    0.00    12.5 1013.94    0.00     0.0    0    0    0.0   70.7
08/15/2018 06:30:00    0.00    0.00    12.2 1013.85    0.00     0.0    0    0    0.0   72.2
08/15/2018 07:00:00    0.00    0.00    12.2 1013.80    0.00     0.0    0    0    0.0   72.8
08/15/2018 07:30:00    0.00    0.00    12.3 1013.67    0.00     0.0    0    0    0.0   74.2
08/15/2018 08:00:00    0.00    0.00    11.8 1013.63    0.00     0.0    0    0    0.0   73.1
08/15/2018 08:30:00    0.00    0.00    11.4 1013.47    0.00     0.0    0    0    0.0   73.8
08/15/2018 09:00:00    0.00    0.00    10.8 1013.50    0.00     0.0    0    0    0.0   74.6
08/15/2018 09:30:00    0.00    0.00    10.2 1013.01    0.00     0.0    0    0    0.0   73.8
08/15/2018 10:00:00    0.00    0.00    11.6 1012.94    0.00     0.0    0    0    0.0   75.6
08/15/2018 10:30:00    0.00    0.00    11.5 1013.18    0.00     0.0    0    0    0.0   74.9
08/15/2018 11:00:00    0.00    0.00    11.9 1013.35    0.00     0.0    0    0    0.0   76.1
08/15/2018 11:30:00    0.00    0.00    11.9 1013.51    0.00     0.0    0    0    0.0   76.9
08/15/2018 12:00:00    0.00    0.00    12.0 1013.97    0.00     0.0    0    0    0.0   77.7
08/15/2018 12:30:00    0.00    0.00    11.9 1013.98    0.00     0.0    0    0    0.0   77.2
08/15/2018 13:00:00    0.00    0.00    12.8 1014.16    0.00     0.0    0    0    0.0   76.3
08/15/2018 13:30:00    0.00    0.00    13.0 1014.46    0.00     0.0    0    0    0.0   78.2
08/15/2018 14:00:00    0.00    0.00    14.5 1014.64    0.00     0.0    0    0    0.0   76.2
08/15/2018 14:30:00    0.00    0.00    14.7 1015.01    0.00     0.0    0    0    0.0   77.1
08/15/2018 15:00:00    0.00    0.00    15.0 1015.28    0.00     0.0    0    0    0.0   75.2
08/15/2018 15:30:00    0.00    0.00    14.8 1015.26    0.00     0.0    0    0    0.0   77.0
08/15/2018 16:00:00    0.00    0.00    14.5 1015.41    0.00     0.0    0    0    0.0   77.1
08/15/2018 16:30:00    0.00    0.00    14.5 1015.40    0.00     0.0    0    0    0.0   78.1
08/15/2018 17:00:00    0.00    0.00    14.6 1015.23    0.00     0.0    0    0    0.0   77.2
08/15/2018 17:30:00    0.00    0.00    14.6 1015.13    0.00     0.0    0    0    0.0   76.6
08/15/2018 18:00:00    0.00    0.00    14.7 1014.92    0.00     0.0    0    0    0.0   75.9
08/15/2018 18:30:00    0.00    0.00    14.7 1014.66    0.00     0.0    0    0    0.0   76.3
08/15/2018 19:00:00    0.00    0.00    14.6 1014.57    0.00     0.0    0    0    0.0   76.2
08/15/2018 19:30:00    0.00    0.00    14.8 1014.37    0.00     0.0    0    0    0.0   74.5
08/15/2018 20:00:00    0.00    0.00    14.8 1014.16    0.00     0.0    0    0    0.0   75.3
08/15/2018 20:30:00    0.00    0.00    15.2 1013.80    0.00     0.0    0    0    0.0   73.3
08/15/2018 21:00:00    0.00    0.00    15.2 1013.41    0.00     0.0    0    0    0.0   75.6
08/15/2018 21:30:00    0.00    0.00    15.4 1013.46    0.00     0.0    0    0    0.0   74.8
08/15/2018 22:00:00    0.00    0.00    15.5 1013.28    0.00     0.0    0    0    0.0   74.6
08/15/2018 22:30:00    0.00    0.00    15.6 1013.15    0.00     0.0    0    0    0.0   73.3
08/15/2018 23:00:00    0.00    0.00    15.6 1013.15    0.00     0.0    0    0    0.0   72.0